Location: Kimberly
(42.5380°N, 114.3640°W)
Time: 16:12:49
(UTC-07:00)

Hubble Space Telescope - Visible Passes

Search period start: 21 February 2018 00:00
Search period end: 03 March 2018 00:00
Orbit: 537 x 541 km, 28.5° (Epoch: 20 February)

Date Brightness Start Highest point End Pass type
(mag) Time Alt. Az. Time Alt. Az. Time Alt. Az.
21 Feb 3.3 06:46:27 10° SSW 06:47:45 11° S 06:49:02 10° SSE visible
22 Feb 3.3 06:35:58 10° SSW 06:37:20 11° S 06:38:42 10° SSE visible
23 Feb 3.2 06:25:36 10° SSW 06:26:54 11° S 06:28:12 10° SSE visible
24 Feb 3.2 06:15:23 10° SSW 06:16:29 11° S 06:17:35 10° S visible
25 Feb 3.3 06:05:27 10° SSW 06:06:04 10° S 06:06:40 10° S visible
